GEFSMW_prec_meanprecacc_162.txt.gz
Total_Precipitation_Accumulation
1.03 1.32 1.81 2.53 2.80 3.27 3.18 2.81 2.59 2.47 2.40 2.42 2.48 2.49 2.67 2.89 3.05 3.14 3.01 2.94 2.88 2.88 3.02 2.95 2.86 2.69 2.64 2.63 2.53 2.41 2.31 2.17 2.11 2.00 1.76 1.43 1.13 1.01 0.98 1.03 1.04 0.98 0.96
1.14 1.56 1.97 2.35 2.55 2.65 2.74 2.96 2.95 2.83 2.70 2.78 3.07 3.48 3.73 3.80 3.89 3.84 3.76 3.64 3.55 3.49 3.44 3.34 3.09 2.84 2.66 2.52 2.39 2.25 2.14 2.03 1.99 2.00 1.95 1.69 1.41 1.10 0.89 0.97 0.99 0.96 0.97
1.10 1.41 1.78 2.04 2.36 2.68 2.79 3.01 3.09 3.19 3.34 3.54 3.75 4.20 4.53 4.56 4.42 4.06 3.90 3.72 3.47 3.33 3.22 3.12 2.99 2.78 2.59 2.43 2.37 2.28 2.20 2.06 2.02 2.03 2.10 1.95 1.59 1.22 1.00 0.91 0.92 0.95 0.97
1.11 1.28 1.45 1.62 1.88 2.19 2.48 2.74 2.94 3.20 3.62 4.17 4.48 4.59 4.76 4.74 4.62 4.29 3.92 3.56 3.26 3.03 2.87 2.87 2.84 2.71 2.53 2.35 2.20 2.14 2.13 2.15 2.04 1.94 1.78 1.66 1.46 1.37 1.22 1.06 0.98 0.93 0.93
1.00 1.12 1.09 1.21 1.46 1.73 1.96 2.33 2.68 3.07 3.63 4.11 4.55 4.78 4.76 4.58 4.40 3.98 3.58 3.27 3.03 2.77 2.61 2.57 2.49 2.34 2.22 2.09 1.94 1.85 1.84 1.88 1.86 1.79 1.71 1.64 1.52 1.38 1.31 1.24 1.13 1.07 0.98
0.84 0.87 0.90 0.94 1.12 1.34 1.60 1.90 2.30 2.85 3.26 3.68 4.12 4.29 4.33 4.20 3.97 3.58 3.25 3.00 2.80 2.58 2.34 2.09 1.97 1.95 1.82 1.63 1.51 1.45 1.43 1.44 1.49 1.55 1.52 1.46 1.46 1.42 1.39 1.31 1.22 1.18 1.14
0.70 0.78 0.80 0.91 1.10 1.29 1.54 1.81 2.16 2.57 2.79 2.93 3.17 3.41 3.47 3.43 3.40 3.25 2.97 2.68 2.40 2.09 1.88 1.68 1.56 1.51 1.48 1.39 1.28 1.22 1.14 1.12 1.18 1.22 1.31 1.34 1.32 1.28 1.33 1.40 1.39 1.29 1.19
0.80 0.81 0.88 0.98 1.16 1.25 1.38 1.58 1.79 2.06 2.19 2.20 2.35 2.55 2.66 2.69 2.67 2.53 2.31 2.06 1.83 1.61 1.39 1.26 1.18 1.09 1.02 0.99 1.00 1.04 1.02 1.00 1.04 1.06 1.15 1.22 1.22 1.22 1.24 1.28 1.39 1.41 1.26
0.85 0.88 0.90 1.01 1.21 1.24 1.28 1.33 1.33 1.44 1.53 1.60 1.66 1.70 1.74 1.79 1.79 1.72 1.61 1.50 1.36 1.20 1.07 0.96 0.90 0.86 0.81 0.79 0.79 0.83 0.87 0.89 0.90 0.93 0.98 1.03 1.01 1.03 1.07 1.12 1.20 1.30 1.27
0.83 0.87 0.88 0.90 0.96 1.01 1.06 1.07 0.97 1.02 1.09 1.08 1.07 1.11 1.21 1.30 1.29 1.15 1.10 1.08 1.03 0.95 0.86 0.80 0.76 0.72 0.69 0.69 0.73 0.74 0.75 0.77 0.77 0.75 0.72 0.72 0.72 0.74 0.75 0.82 0.92 1.02 1.11
0.83 0.81 0.79 0.73 0.68 0.69 0.74 0.81 0.76 0.75 0.77 0.79 0.81 0.81 0.85 0.91 0.94 0.90 0.83 0.79 0.76 0.73 0.72 0.66 0.62 0.61 0.61 0.61 0.63 0.60 0.57 0.55 0.55 0.54 0.55 0.59 0.58 0.61 0.61 0.65 0.75 0.90 1.02
0.86 0.82 0.80 0.74 0.69 0.64 0.63 0.64 0.67 0.70 0.68 0.64 0.66 0.68 0.68 0.67 0.70 0.73 0.72 0.68 0.66 0.65 0.63 0.57 0.52 0.50 0.47 0.46 0.43 0.41 0.40 0.43 0.44 0.46 0.50 0.52 0.53 0.54 0.56 0.60 0.69 0.81 0.97
1.06 0.97 0.88 0.82 0.76 0.69 0.64 0.60 0.63 0.67 0.65 0.59 0.59 0.58 0.58 0.57 0.58 0.58 0.58 0.56 0.56 0.56 0.54 0.50 0.47 0.43 0.42 0.39 0.35 0.35 0.36 0.38 0.40 0.43 0.48 0.52 0.59 0.61 0.62 0.67 0.71 0.78 0.86
1.17 1.04 0.95 0.87 0.80 0.76 0.71 0.68 0.66 0.64 0.61 0.58 0.56 0.54 0.57 0.56 0.54 0.52 0.51 0.50 0.50 0.53 0.55 0.54 0.45 0.36 0.32 0.32 0.30 0.29 0.31 0.34 0.36 0.41 0.47 0.53 0.62 0.69 0.72 0.72 0.75 0.80 0.88
1.20 1.07 1.05 1.01 0.91 0.90 0.84 0.78 0.71 0.66 0.60 0.57 0.56 0.58 0.60 0.60 0.59 0.59 0.58 0.56 0.54 0.50 0.49 0.49 0.47 0.40 0.32 0.29 0.27 0.26 0.29 0.35 0.41 0.43 0.45 0.49 0.59 0.67 0.65 0.62 0.65 0.77 0.95
1.38 1.37 1.39 1.37 1.22 1.07 0.98 0.89 0.80 0.74 0.68 0.68 0.68 0.66 0.63 0.60 0.60 0.59 0.59 0.60 0.58 0.54 0.48 0.45 0.45 0.42 0.31 0.31 0.29 0.26 0.31 0.39 0.45 0.48 0.48 0.46 0.49 0.48 0.49 0.55 0.61 0.70 0.90
1.67 1.67 1.58 1.49 1.34 1.21 1.13 1.04 0.94 0.88 0.85 0.83 0.77 0.70 0.62 0.59 0.57 0.52 0.55 0.59 0.57 0.52 0.47 0.42 0.43 0.41 0.34 0.31 0.29 0.29 0.33 0.43 0.49 0.52 0.52 0.43 0.38 0.46 0.51 0.55 0.59 0.70 0.83
1.60 1.58 1.47 1.36 1.28 1.25 1.19 1.08 0.97 0.92 0.87 0.83 0.76 0.65 0.57 0.56 0.56 0.56 0.57 0.55 0.52 0.49 0.48 0.46 0.45 0.43 0.34 0.30 0.29 0.30 0.35 0.44 0.48 0.49 0.50 0.52 0.51 0.48 0.50 0.54 0.65 0.80 0.91
1.50 1.52 1.50 1.41 1.35 1.30 1.18 1.10 1.04 0.94 0.89 0.82 0.68 0.55 0.48 0.49 0.51 0.51 0.50 0.49 0.49 0.47 0.43 0.39 0.41 0.43 0.39 0.32 0.30 0.29 0.36 0.43 0.45 0.44 0.43 0.41 0.44 0.47 0.57 0.71 0.92 1.05 1.17
1.37 1.47 1.58 1.60 1.52 1.38 1.14 1.05 1.00 0.88 0.77 0.65 0.54 0.48 0.44 0.41 0.39 0.39 0.43 0.44 0.45 0.42 0.36 0.32 0.34 0.36 0.34 0.24 0.22 0.25 0.33 0.40 0.43 0.46 0.47 0.41 0.38 0.48 0.63 0.87 1.13 1.25 1.32
1.36 1.42 1.47 1.45 1.38 1.25 1.08 1.01 0.93 0.79 0.61 0.49 0.44 0.44 0.39 0.32 0.29 0.34 0.39 0.40 0.36 0.36 0.35 0.35 0.32 0.28 0.21 0.18 0.17 0.18 0.23 0.31 0.41 0.47 0.55 0.54 0.47 0.55 0.73 0.93 1.11 1.25 1.29
1.25 1.24 1.23 1.19 1.08 0.97 0.91 0.90 0.82 0.62 0.46 0.41 0.39 0.37 0.31 0.19 0.19 0.29 0.32 0.31 0.34 0.33 0.31 0.32 0.30 0.25 0.22 0.15 0.13 0.15 0.15 0.18 0.35 0.52 0.55 0.57 0.54 0.59 0.79 0.94 1.15 1.34 1.43
1.02 0.98 0.90 0.85 0.83 0.78 0.74 0.71 0.60 0.46 0.40 0.39 0.40 0.36 0.29 0.23 0.20 0.23 0.26 0.26 0.28 0.25 0.22 0.24 0.25 0.23 0.23 0.17 0.10 0.11 0.12 0.14 0.26 0.41 0.47 0.52 0.56 0.72 1.03 1.18 1.33 1.46 1.55
0.79 0.73 0.67 0.63 0.62 0.58 0.55 0.51 0.40 0.37 0.40 0.42 0.40 0.38 0.36 0.29 0.21 0.20 0.16 0.17 0.20 0.21 0.21 0.22 0.23 0.24 0.23 0.17 0.13 0.15 0.17 0.18 0.25 0.39 0.52 0.62 0.69 0.88 1.18 1.38 1.55 1.59 1.48
0.56 0.52 0.51 0.47 0.42 0.38 0.36 0.34 0.32 0.31 0.38 0.36 0.30 0.27 0.25 0.23 0.22 0.18 0.10 0.09 0.10 0.09 0.13 0.16 0.16 0.18 0.18 0.12 0.13 0.15 0.16 0.18 0.22 0.35 0.54 0.71 0.83 1.03 1.23 1.39 1.46 1.43 1.32
0.43 0.45 0.45 0.41 0.37 0.33 0.27 0.24 0.21 0.23 0.31 0.29 0.23 0.18 0.14 0.14 0.14 0.18 0.14 0.06 0.04 0.04 0.04 0.05 0.06 0.08 0.09 0.09 0.11 0.14 0.16 0.20 0.25 0.36 0.56 0.68 0.78 0.96 1.18 1.30 1.27 1.18 1.11

GEFSMW_prec_meanprecacc_168.txt.gz
Total_Precipitation_Accumulation
1.13 1.38 1.84 2.55 2.83 3.30 3.23 2.87 2.65 2.59 2.53 2.50 2.55 2.60 2.79 2.97 3.11 3.18 3.04 2.96 2.90 2.90 3.04 2.98 2.89 2.71 2.65 2.65 2.58 2.44 2.34 2.21 2.14 2.03 1.79 1.46 1.16 1.03 1.00 1.05 1.06 1.01 1.00
1.21 1.60 1.99 2.37 2.59 2.68 2.77 2.99 2.98 2.88 2.76 2.82 3.12 3.54 3.80 3.85 3.93 3.87 3.79 3.66 3.57 3.51 3.46 3.37 3.13 2.88 2.69 2.55 2.42 2.27 2.16 2.05 2.01 2.02 1.98 1.72 1.43 1.12 0.91 0.98 1.01 0.98 0.99
1.17 1.46 1.81 2.07 2.38 2.69 2.81 3.03 3.12 3.23 3.38 3.59 3.81 4.27 4.60 4.60 4.45 4.09 3.92 3.74 3.48 3.34 3.24 3.15 3.02 2.81 2.63 2.47 2.41 2.32 2.23 2.09 2.04 2.04 2.11 1.98 1.62 1.24 1.01 0.92 0.94 0.97 0.99
1.20 1.33 1.49 1.66 1.93 2.24 2.53 2.78 2.98 3.25 3.66 4.23 4.55 4.66 4.83 4.79 4.65 4.32 3.94 3.57 3.27 3.04 2.90 2.90 2.87 2.75 2.57 2.39 2.24 2.18 2.17 2.17 2.07 1.96 1.81 1.68 1.49 1.40 1.24 1.08 1.00 0.95 0.95
1.11 1.18 1.14 1.27 1.56 1.83 2.04 2.40 2.74 3.13 3.69 4.18 4.61 4.83 4.81 4.62 4.43 4.01 3.60 3.29 3.04 2.78 2.64 2.62 2.54 2.38 2.25 2.11 1.97 1.89 1.88 1.90 1.88 1.82 1.75 1.69 1.55 1.42 1.33 1.25 1.15 1.08 0.99
0.88 0.91 0.95 1.02 1.23 1.44 1.67 1.95 2.35 2.93 3.37 3.78 4.19 4.34 4.36 4.23 4.00 3.61 3.27 3.03 2.82 2.60 2.36 2.14 2.05 2.02 1.88 1.67 1.54 1.48 1.45 1.46 1.51 1.58 1.55 1.49 1.48 1.45 1.41 1.33 1.24 1.19 1.14
0.75 0.82 0.85 0.98 1.18 1.35 1.60 1.86 2.21 2.63 2.86 3.00 3.23 3.46 3.51 3.48 3.44 3.28 2.99 2.71 2.43 2.12 1.91 1.72 1.61 1.57 1.55 1.45 1.31 1.24 1.17 1.15 1.19 1.24 1.33 1.36 1.34 1.30 1.35 1.42 1.40 1.30 1.20
0.88 0.90 0.98 1.09 1.29 1.39 1.47 1.62 1.83 2.09 2.23 2.23 2.39 2.59 2.70 2.72 2.69 2.55 2.33 2.08 1.86 1.66 1.46 1.33 1.23 1.13 1.05 1.02 1.02 1.06 1.04 1.01 1.05 1.07 1.17 1.25 1.24 1.25 1.26 1.29 1.41 1.43 1.28
0.91 0.95 0.97 1.08 1.30 1.38 1.43 1.41 1.38 1.47 1.56 1.62 1.69 1.73 1.77 1.81 1.81 1.74 1.62 1.52 1.38 1.23 1.12 1.03 0.97 0.91 0.85 0.80 0.79 0.84 0.89 0.90 0.91 0.94 1.00 1.05 1.03 1.05 1.10 1.15 1.23 1.32 1.30
0.90 0.94 0.95 0.96 1.01 1.07 1.16 1.16 1.03 1.06 1.12 1.11 1.10 1.14 1.22 1.31 1.30 1.16 1.11 1.08 1.04 0.96 0.88 0.83 0.80 0.76 0.72 0.71 0.74 0.75 0.76 0.78 0.78 0.77 0.74 0.74 0.74 0.76 0.78 0.85 0.95 1.06 1.14
0.90 0.87 0.86 0.80 0.74 0.74 0.79 0.87 0.83 0.82 0.82 0.84 0.86 0.85 0.87 0.92 0.95 0.91 0.84 0.80 0.76 0.74 0.72 0.67 0.63 0.62 0.63 0.63 0.64 0.60 0.58 0.56 0.56 0.56 0.57 0.61 0.60 0.64 0.64 0.67 0.78 0.93 1.06
0.93 0.87 0.86 0.81 0.76 0.71 0.70 0.71 0.72 0.73 0.71 0.68 0.70 0.71 0.70 0.69 0.70 0.73 0.72 0.68 0.67 0.66 0.64 0.58 0.53 0.50 0.48 0.46 0.44 0.41 0.41 0.44 0.46 0.48 0.51 0.54 0.56 0.57 0.58 0.62 0.70 0.84 1.00
1.13 1.03 0.94 0.87 0.82 0.75 0.69 0.64 0.66 0.70 0.68 0.62 0.62 0.60 0.60 0.58 0.58 0.59 0.58 0.56 0.56 0.57 0.54 0.51 0.49 0.43 0.42 0.39 0.36 0.36 0.37 0.39 0.40 0.44 0.49 0.54 0.61 0.63 0.63 0.68 0.72 0.79 0.88
1.25 1.09 1.00 0.91 0.85 0.80 0.75 0.71 0.69 0.67 0.63 0.60 0.59 0.56 0.58 0.57 0.55 0.52 0.51 0.50 0.50 0.53 0.55 0.54 0.45 0.36 0.32 0.32 0.31 0.30 0.32 0.34 0.36 0.41 0.49 0.55 0.64 0.70 0.72 0.72 0.76 0.81 0.90
1.31 1.14 1.09 1.05 0.95 0.93 0.88 0.82 0.76 0.71 0.64 0.60 0.58 0.59 0.61 0.61 0.60 0.60 0.58 0.57 0.54 0.50 0.49 0.49 0.47 0.40 0.32 0.29 0.28 0.28 0.30 0.36 0.42 0.44 0.46 0.50 0.60 0.69 0.66 0.63 0.65 0.78 0.96
1.51 1.49 1.46 1.42 1.28 1.15 1.06 0.96 0.85 0.79 0.73 0.72 0.70 0.68 0.65 0.61 0.61 0.60 0.59 0.60 0.58 0.55 0.48 0.46 0.45 0.42 0.32 0.31 0.30 0.28 0.33 0.40 0.46 0.49 0.49 0.47 0.49 0.49 0.50 0.56 0.62 0.71 0.92
1.83 1.83 1.72 1.59 1.44 1.33 1.26 1.17 1.04 0.95 0.91 0.88 0.82 0.73 0.65 0.62 0.58 0.53 0.56 0.60 0.58 0.53 0.47 0.43 0.44 0.42 0.36 0.32 0.30 0.31 0.35 0.44 0.51 0.53 0.53 0.44 0.39 0.46 0.52 0.55 0.60 0.71 0.84
1.72 1.70 1.59 1.48 1.39 1.34 1.27 1.15 1.03 0.97 0.91 0.87 0.80 0.70 0.60 0.58 0.58 0.58 0.59 0.57 0.53 0.50 0.50 0.48 0.47 0.44 0.35 0.31 0.31 0.31 0.36 0.46 0.49 0.50 0.51 0.53 0.52 0.49 0.51 0.55 0.66 0.80 0.92
1.58 1.61 1.59 1.49 1.43 1.36 1.23 1.14 1.06 0.95 0.90 0.85 0.71 0.58 0.51 0.51 0.52 0.52 0.52 0.51 0.50 0.49 0.45 0.41 0.42 0.44 0.40 0.33 0.31 0.29 0.37 0.44 0.46 0.45 0.44 0.42 0.45 0.49 0.59 0.72 0.93 1.06 1.18
1.43 1.54 1.65 1.67 1.59 1.44 1.19 1.10 1.03 0.90 0.78 0.66 0.55 0.49 0.45 0.42 0.40 0.40 0.44 0.45 0.46 0.43 0.37 0.33 0.35 0.36 0.34 0.25 0.22 0.25 0.33 0.40 0.44 0.47 0.49 0.43 0.40 0.50 0.66 0.89 1.15 1.27 1.35
1.42 1.47 1.53 1.52 1.44 1.31 1.12 1.05 0.96 0.82 0.64 0.51 0.46 0.46 0.40 0.32 0.30 0.35 0.40 0.41 0.37 0.37 0.35 0.35 0.33 0.29 0.22 0.19 0.17 0.19 0.23 0.31 0.41 0.47 0.56 0.56 0.49 0.57 0.75 0.95 1.13 1.29 1.31
1.29 1.29 1.28 1.23 1.12 1.01 0.93 0.92 0.84 0.64 0.48 0.43 0.42 0.40 0.34 0.21 0.20 0.30 0.33 0.32 0.34 0.34 0.32 0.32 0.30 0.25 0.22 0.16 0.14 0.15 0.16 0.18 0.35 0.52 0.56 0.58 0.56 0.62 0.81 0.97 1.19 1.39 1.47
1.04 1.00 0.92 0.87 0.85 0.80 0.76 0.72 0.62 0.47 0.41 0.41 0.42 0.37 0.31 0.25 0.20 0.24 0.27 0.27 0.29 0.26 0.22 0.24 0.25 0.23 0.23 0.17 0.10 0.11 0.12 0.14 0.26 0.41 0.47 0.53 0.57 0.73 1.04 1.20 1.35 1.49 1.58
0.80 0.75 0.68 0.65 0.63 0.60 0.56 0.52 0.42 0.38 0.41 0.43 0.40 0.39 0.37 0.30 0.23 0.20 0.17 0.18 0.21 0.22 0.21 0.23 0.24 0.24 0.24 0.18 0.13 0.16 0.17 0.18 0.25 0.40 0.52 0.62 0.70 0.89 1.19 1.39 1.56 1.59 1.48
0.56 0.53 0.52 0.49 0.45 0.40 0.38 0.36 0.33 0.32 0.38 0.36 0.31 0.28 0.25 0.24 0.23 0.18 0.10 0.09 0.11 0.10 0.13 0.16 0.16 0.19 0.19 0.12 0.13 0.16 0.16 0.18 0.22 0.35 0.55 0.71 0.84 1.04 1.24 1.40 1.46 1.43 1.32
0.44 0.46 0.47 0.43 0.40 0.36 0.30 0.25 0.22 0.24 0.32 0.30 0.24 0.18 0.15 0.14 0.14 0.19 0.14 0.06 0.04 0.04 0.05 0.06 0.06 0.08 0.10 0.09 0.12 0.14 0.17 0.20 0.26 0.37 0.57 0.69 0.79 0.97 1.18 1.31 1.27 1.18 1.12

GEFSMW_prec_meanprecacc_174.txt.gz
Total_Precipitation_Accumulation
1.16 1.42 1.86 2.57 2.86 3.35 3.29 2.93 2.71 2.65 2.61 2.58 2.62 2.65 2.83 3.03 3.18 3.25 3.09 3.02 2.95 2.94 3.07 3.01 2.92 2.74 2.68 2.68 2.62 2.48 2.39 2.25 2.19 2.08 1.83 1.49 1.18 1.05 1.01 1.06 1.07 1.02 1.01
1.25 1.64 2.02 2.40 2.62 2.74 2.83 3.05 3.05 2.96 2.84 2.89 3.18 3.60 3.84 3.89 3.97 3.92 3.85 3.71 3.62 3.55 3.49 3.40 3.15 2.91 2.74 2.59 2.46 2.32 2.22 2.10 2.06 2.06 2.01 1.74 1.45 1.13 0.91 0.99 1.02 0.99 1.01
1.19 1.49 1.84 2.11 2.44 2.77 2.88 3.09 3.18 3.29 3.45 3.66 3.88 4.35 4.67 4.66 4.51 4.14 3.96 3.77 3.51 3.37 3.27 3.18 3.05 2.85 2.67 2.51 2.46 2.37 2.28 2.15 2.11 2.10 2.14 1.99 1.64 1.26 1.02 0.92 0.95 0.98 1.01
1.22 1.35 1.51 1.69 1.97 2.29 2.60 2.85 3.03 3.29 3.71 4.29 4.62 4.74 4.92 4.86 4.70 4.37 3.99 3.61 3.30 3.07 2.93 2.93 2.90 2.78 2.60 2.43 2.28 2.23 2.22 2.23 2.14 2.02 1.84 1.71 1.51 1.42 1.26 1.09 1.01 0.96 0.97
1.15 1.21 1.17 1.30 1.61 1.89 2.12 2.47 2.81 3.19 3.74 4.23 4.66 4.90 4.88 4.67 4.48 4.07 3.66 3.33 3.08 2.81 2.67 2.65 2.56 2.40 2.27 2.13 1.99 1.92 1.93 1.95 1.93 1.88 1.79 1.73 1.58 1.44 1.35 1.26 1.16 1.09 1.01
0.94 0.96 0.99 1.07 1.30 1.51 1.75 2.02 2.42 2.99 3.42 3.83 4.25 4.40 4.42 4.29 4.08 3.67 3.33 3.07 2.86 2.63 2.39 2.17 2.09 2.05 1.90 1.68 1.55 1.51 1.50 1.53 1.57 1.63 1.60 1.52 1.51 1.48 1.44 1.35 1.25 1.20 1.16
0.82 0.88 0.89 1.02 1.26 1.46 1.72 1.95 2.29 2.68 2.90 3.04 3.28 3.52 3.57 3.54 3.50 3.34 3.05 2.75 2.47 2.15 1.93 1.74 1.63 1.59 1.57 1.47 1.34 1.27 1.20 1.19 1.24 1.28 1.38 1.40 1.37 1.33 1.38 1.44 1.42 1.31 1.21
0.92 0.95 1.02 1.15 1.38 1.51 1.57 1.70 1.88 2.14 2.27 2.27 2.43 2.64 2.75 2.78 2.75 2.61 2.38 2.12 1.90 1.70 1.49 1.36 1.25 1.16 1.08 1.05 1.05 1.09 1.08 1.06 1.10 1.12 1.21 1.28 1.28 1.28 1.29 1.32 1.43 1.44 1.30
0.95 1.00 1.03 1.14 1.37 1.45 1.50 1.46 1.42 1.52 1.61 1.67 1.73 1.77 1.82 1.87 1.87 1.79 1.66 1.54 1.41 1.26 1.14 1.06 1.00 0.95 0.90 0.86 0.85 0.88 0.93 0.94 0.96 0.99 1.04 1.09 1.07 1.09 1.14 1.19 1.26 1.35 1.32
0.96 1.01 1.00 1.02 1.07 1.12 1.21 1.20 1.08 1.11 1.16 1.14 1.13 1.17 1.26 1.36 1.35 1.21 1.14 1.11 1.06 0.98 0.89 0.84 0.83 0.80 0.77 0.76 0.80 0.80 0.80 0.81 0.80 0.79 0.78 0.78 0.77 0.80 0.83 0.90 0.99 1.09 1.17
0.95 0.92 0.91 0.85 0.79 0.77 0.84 0.91 0.88 0.86 0.86 0.87 0.90 0.89 0.91 0.95 0.98 0.94 0.86 0.81 0.77 0.74 0.73 0.68 0.65 0.65 0.66 0.65 0.67 0.63 0.60 0.58 0.58 0.57 0.59 0.64 0.64 0.67 0.69 0.71 0.82 0.98 1.09
0.98 0.93 0.92 0.86 0.80 0.75 0.75 0.76 0.78 0.80 0.77 0.73 0.76 0.77 0.74 0.71 0.72 0.75 0.74 0.69 0.67 0.66 0.65 0.59 0.53 0.51 0.49 0.47 0.45 0.44 0.44 0.46 0.48 0.49 0.52 0.55 0.57 0.59 0.62 0.67 0.75 0.87 1.04
1.18 1.09 1.00 0.94 0.88 0.80 0.74 0.69 0.71 0.75 0.72 0.66 0.67 0.65 0.64 0.60 0.59 0.60 0.59 0.57 0.57 0.57 0.55 0.52 0.49 0.44 0.43 0.40 0.36 0.37 0.38 0.40 0.41 0.45 0.50 0.55 0.63 0.65 0.67 0.72 0.75 0.81 0.90
1.29 1.16 1.06 0.97 0.89 0.84 0.80 0.77 0.74 0.71 0.65 0.63 0.62 0.60 0.62 0.60 0.56 0.53 0.52 0.51 0.51 0.54 0.56 0.55 0.45 0.37 0.33 0.32 0.31 0.30 0.32 0.34 0.37 0.42 0.49 0.56 0.66 0.73 0.75 0.74 0.77 0.82 0.91
1.35 1.22 1.18 1.11 1.00 0.96 0.92 0.86 0.79 0.74 0.67 0.63 0.62 0.63 0.66 0.66 0.64 0.62 0.60 0.58 0.55 0.51 0.49 0.50 0.47 0.41 0.33 0.29 0.28 0.28 0.31 0.37 0.43 0.45 0.47 0.52 0.63 0.72 0.68 0.64 0.67 0.79 0.97
1.53 1.54 1.55 1.48 1.33 1.18 1.09 0.98 0.88 0.82 0.75 0.75 0.74 0.71 0.68 0.65 0.64 0.63 0.61 0.62 0.59 0.55 0.49 0.46 0.46 0.43 0.32 0.32 0.31 0.29 0.34 0.41 0.47 0.50 0.51 0.48 0.51 0.51 0.51 0.57 0.63 0.72 0.93
1.84 1.85 1.78 1.66 1.49 1.37 1.30 1.20 1.07 0.97 0.92 0.90 0.84 0.76 0.68 0.65 0.62 0.55 0.58 0.62 0.59 0.54 0.48 0.44 0.45 0.44 0.37 0.34 0.32 0.31 0.36 0.46 0.52 0.55 0.55 0.45 0.40 0.47 0.52 0.56 0.61 0.72 0.85
1.74 1.72 1.63 1.54 1.45 1.39 1.31 1.18 1.06 0.99 0.93 0.89 0.82 0.71 0.63 0.63 0.63 0.62 0.62 0.60 0.56 0.52 0.52 0.50 0.48 0.45 0.37 0.33 0.33 0.32 0.37 0.48 0.51 0.51 0.52 0.55 0.53 0.50 0.52 0.56 0.66 0.81 0.93
1.61 1.64 1.63 1.56 1.50 1.41 1.27 1.17 1.08 0.96 0.92 0.87 0.74 0.61 0.54 0.55 0.56 0.56 0.54 0.52 0.52 0.50 0.46 0.42 0.43 0.46 0.42 0.36 0.33 0.31 0.38 0.45 0.47 0.46 0.45 0.44 0.46 0.50 0.61 0.73 0.94 1.07 1.18
1.48 1.61 1.71 1.74 1.66 1.51 1.25 1.15 1.06 0.92 0.80 0.68 0.58 0.53 0.50 0.46 0.43 0.42 0.46 0.47 0.48 0.45 0.38 0.36 0.38 0.39 0.37 0.27 0.24 0.26 0.33 0.41 0.44 0.48 0.50 0.44 0.41 0.52 0.68 0.91 1.17 1.29 1.36
1.48 1.58 1.61 1.59 1.53 1.41 1.22 1.12 1.00 0.85 0.67 0.54 0.49 0.49 0.42 0.34 0.31 0.35 0.41 0.42 0.38 0.37 0.36 0.37 0.34 0.30 0.23 0.20 0.18 0.19 0.23 0.32 0.41 0.48 0.56 0.56 0.50 0.57 0.77 0.97 1.15 1.31 1.33
1.34 1.40 1.37 1.32 1.20 1.11 1.04 0.99 0.88 0.67 0.52 0.47 0.46 0.44 0.37 0.23 0.21 0.30 0.34 0.33 0.36 0.35 0.32 0.33 0.31 0.26 0.23 0.16 0.15 0.16 0.16 0.19 0.35 0.52 0.56 0.58 0.57 0.62 0.82 0.98 1.21 1.42 1.48
1.08 1.09 1.02 0.95 0.93 0.87 0.84 0.79 0.66 0.50 0.44 0.43 0.44 0.39 0.33 0.27 0.21 0.25 0.28 0.28 0.30 0.26 0.23 0.24 0.26 0.23 0.24 0.18 0.11 0.12 0.13 0.15 0.26 0.41 0.47 0.53 0.57 0.74 1.04 1.21 1.36 1.52 1.60
0.84 0.81 0.77 0.72 0.71 0.68 0.64 0.58 0.46 0.41 0.43 0.45 0.42 0.39 0.37 0.31 0.23 0.21 0.17 0.19 0.22 0.23 0.22 0.23 0.25 0.24 0.24 0.18 0.14 0.16 0.18 0.19 0.26 0.40 0.52 0.62 0.70 0.90 1.21 1.40 1.57 1.61 1.50
0.58 0.56 0.58 0.56 0.51 0.47 0.45 0.41 0.36 0.34 0.41 0.38 0.32 0.29 0.26 0.25 0.24 0.19 0.11 0.10 0.11 0.10 0.14 0.16 0.16 0.19 0.19 0.12 0.14 0.16 0.16 0.18 0.22 0.36 0.55 0.72 0.85 1.05 1.27 1.43 1.47 1.44 1.33
0.46 0.49 0.50 0.48 0.46 0.42 0.36 0.30 0.25 0.26 0.33 0.31 0.25 0.20 0.17 0.16 0.16 0.20 0.15 0.06 0.04 0.04 0.05 0.06 0.06 0.08 0.10 0.09 0.12 0.14 0.17 0.21 0.26 0.37 0.57 0.70 0.80 0.99 1.20 1.33 1.30 1.19 1.12

GEFSMW_prec_meanprecacc_180.txt.gz
Total_Precipitation_Accumulation
1.18 1.43 1.88 2.60 2.90 3.39 3.32 2.97 2.76 2.70 2.66 2.65 2.69 2.70 2.89 3.08 3.22 3.28 3.13 3.06 2.98 2.97 3.11 3.05 2.97 2.79 2.72 2.73 2.67 2.53 2.44 2.30 2.25 2.13 1.86 1.51 1.20 1.07 1.04 1.10 1.12 1.07 1.07
1.26 1.66 2.05 2.43 2.65 2.78 2.87 3.08 3.09 3.01 2.89 2.94 3.23 3.65 3.90 3.93 4.01 3.96 3.89 3.75 3.64 3.58 3.53 3.44 3.20 2.96 2.78 2.64 2.51 2.38 2.28 2.15 2.12 2.12 2.06 1.77 1.47 1.15 0.93 1.02 1.05 1.03 1.06
1.21 1.51 1.88 2.14 2.46 2.80 2.90 3.12 3.22 3.35 3.51 3.72 3.94 4.41 4.72 4.70 4.54 4.17 3.99 3.80 3.54 3.40 3.30 3.21 3.08 2.89 2.71 2.55 2.51 2.42 2.35 2.22 2.17 2.17 2.22 2.06 1.68 1.28 1.04 0.94 0.98 1.02 1.06
1.24 1.38 1.54 1.72 1.99 2.32 2.61 2.88 3.09 3.37 3.79 4.38 4.69 4.81 4.98 4.91 4.75 4.41 4.04 3.67 3.36 3.13 2.99 2.99 2.95 2.81 2.62 2.45 2.31 2.27 2.27 2.32 2.22 2.10 1.93 1.79 1.59 1.47 1.29 1.11 1.03 1.00 1.01
1.18 1.25 1.21 1.33 1.64 1.92 2.15 2.51 2.86 3.25 3.82 4.30 4.74 4.98 4.97 4.75 4.56 4.14 3.74 3.41 3.14 2.87 2.73 2.71 2.60 2.43 2.29 2.15 2.02 1.95 1.96 2.00 2.02 1.98 1.90 1.82 1.67 1.52 1.41 1.30 1.19 1.12 1.04
0.98 1.00 1.03 1.11 1.33 1.55 1.80 2.07 2.48 3.06 3.49 3.90 4.32 4.47 4.51 4.42 4.20 3.78 3.45 3.17 2.94 2.69 2.45 2.21 2.12 2.09 1.93 1.72 1.59 1.53 1.52 1.56 1.63 1.72 1.72 1.64 1.61 1.57 1.53 1.42 1.30 1.25 1.21
0.86 0.93 0.93 1.05 1.28 1.49 1.78 2.03 2.37 2.78 3.01 3.13 3.35 3.59 3.64 3.61 3.58 3.42 3.15 2.85 2.56 2.23 1.99 1.78 1.67 1.63 1.61 1.50 1.37 1.29 1.22 1.21 1.28 1.34 1.45 1.49 1.46 1.42 1.46 1.52 1.49 1.35 1.25
0.95 0.98 1.05 1.16 1.40 1.54 1.62 1.76 1.95 2.25 2.38 2.36 2.53 2.74 2.85 2.84 2.81 2.67 2.43 2.16 1.94 1.74 1.54 1.40 1.29 1.18 1.10 1.06 1.07 1.11 1.09 1.08 1.13 1.15 1.26 1.34 1.34 1.35 1.37 1.39 1.50 1.51 1.35
0.98 1.03 1.07 1.17 1.39 1.49 1.54 1.49 1.46 1.58 1.67 1.74 1.82 1.86 1.91 1.94 1.92 1.83 1.70 1.59 1.44 1.28 1.17 1.08 1.03 0.96 0.91 0.87 0.86 0.90 0.95 0.96 0.99 1.03 1.09 1.14 1.14 1.16 1.22 1.26 1.33 1.42 1.38
0.98 1.03 1.03 1.05 1.10 1.16 1.26 1.24 1.11 1.16 1.21 1.20 1.18 1.22 1.31 1.40 1.37 1.24 1.18 1.15 1.09 1.00 0.91 0.87 0.86 0.82 0.79 0.78 0.82 0.83 0.84 0.86 0.85 0.84 0.83 0.84 0.84 0.89 0.92 1.00 1.09 1.19 1.27
0.96 0.94 0.93 0.88 0.82 0.82 0.88 0.96 0.93 0.91 0.90 0.91 0.93 0.92 0.93 0.97 1.00 0.97 0.90 0.85 0.80 0.77 0.75 0.71 0.68 0.68 0.69 0.68 0.70 0.67 0.65 0.63 0.61 0.61 0.63 0.67 0.69 0.73 0.75 0.78 0.91 1.09 1.21
0.99 0.96 0.95 0.90 0.84 0.79 0.80 0.81 0.82 0.83 0.80 0.75 0.79 0.80 0.77 0.74 0.75 0.79 0.79 0.73 0.71 0.70 0.68 0.62 0.57 0.54 0.52 0.50 0.48 0.47 0.50 0.51 0.51 0.52 0.56 0.58 0.60 0.62 0.67 0.72 0.80 0.95 1.13
1.20 1.12 1.05 0.99 0.91 0.83 0.78 0.73 0.74 0.77 0.74 0.68 0.68 0.67 0.66 0.63 0.62 0.64 0.64 0.62 0.62 0.62 0.58 0.54 0.52 0.46 0.45 0.42 0.39 0.40 0.43 0.43 0.44 0.48 0.53 0.57 0.65 0.68 0.69 0.75 0.79 0.88 1.00
1.33 1.20 1.11 1.02 0.93 0.88 0.84 0.82 0.78 0.73 0.67 0.63 0.63 0.62 0.64 0.62 0.58 0.55 0.53 0.53 0.54 0.56 0.58 0.57 0.48 0.39 0.35 0.34 0.32 0.33 0.35 0.36 0.38 0.43 0.51 0.57 0.68 0.75 0.78 0.77 0.80 0.86 0.96
1.38 1.26 1.22 1.16 1.04 1.00 0.97 0.93 0.84 0.76 0.68 0.64 0.63 0.66 0.70 0.69 0.66 0.64 0.62 0.60 0.57 0.52 0.51 0.52 0.50 0.43 0.35 0.31 0.30 0.30 0.33 0.39 0.44 0.47 0.49 0.53 0.64 0.73 0.70 0.66 0.69 0.81 1.00
1.55 1.57 1.60 1.53 1.36 1.22 1.14 1.03 0.91 0.84 0.77 0.76 0.75 0.74 0.74 0.70 0.68 0.65 0.64 0.64 0.61 0.56 0.50 0.49 0.48 0.45 0.34 0.33 0.33 0.30 0.36 0.43 0.48 0.51 0.52 0.50 0.52 0.51 0.52 0.58 0.64 0.74 0.95
1.86 1.88 1.82 1.70 1.52 1.40 1.35 1.25 1.11 1.00 0.95 0.92 0.85 0.78 0.72 0.68 0.65 0.58 0.61 0.64 0.61 0.55 0.49 0.45 0.47 0.45 0.38 0.35 0.32 0.32 0.37 0.47 0.53 0.56 0.56 0.46 0.40 0.48 0.53 0.57 0.62 0.73 0.87
1.77 1.76 1.67 1.58 1.49 1.44 1.37 1.23 1.10 1.04 0.97 0.91 0.83 0.72 0.64 0.64 0.64 0.64 0.64 0.61 0.57 0.53 0.53 0.51 0.50 0.46 0.38 0.35 0.34 0.33 0.38 0.49 0.51 0.52 0.53 0.56 0.54 0.50 0.52 0.57 0.68 0.82 0.95
1.65 1.68 1.67 1.59 1.54 1.48 1.36 1.24 1.13 1.00 0.95 0.88 0.74 0.62 0.56 0.56 0.57 0.58 0.56 0.54 0.54 0.52 0.47 0.43 0.44 0.46 0.44 0.38 0.35 0.33 0.40 0.47 0.48 0.46 0.45 0.45 0.48 0.51 0.61 0.75 0.96 1.08 1.20
1.51 1.64 1.73 1.76 1.68 1.55 1.32 1.21 1.09 0.93 0.81 0.68 0.58 0.53 0.51 0.48 0.45 0.44 0.47 0.48 0.49 0.46 0.39 0.36 0.38 0.40 0.38 0.28 0.26 0.28 0.35 0.42 0.46 0.49 0.50 0.45 0.42 0.52 0.68 0.92 1.19 1.31 1.38
1.51 1.62 1.64 1.61 1.56 1.46 1.26 1.16 1.03 0.86 0.68 0.55 0.50 0.50 0.44 0.36 0.32 0.36 0.42 0.43 0.39 0.38 0.37 0.37 0.35 0.31 0.24 0.21 0.19 0.20 0.24 0.32 0.42 0.49 0.57 0.56 0.50 0.58 0.77 0.97 1.16 1.32 1.34
1.38 1.46 1.41 1.34 1.24 1.15 1.08 1.03 0.91 0.69 0.53 0.48 0.47 0.45 0.38 0.24 0.22 0.31 0.35 0.34 0.36 0.35 0.33 0.33 0.31 0.26 0.23 0.17 0.15 0.16 0.16 0.19 0.36 0.53 0.56 0.58 0.57 0.62 0.82 0.98 1.22 1.42 1.49
1.12 1.14 1.05 0.97 0.96 0.91 0.88 0.84 0.70 0.53 0.46 0.44 0.45 0.40 0.34 0.28 0.22 0.26 0.29 0.29 0.30 0.27 0.23 0.25 0.26 0.24 0.24 0.19 0.11 0.12 0.13 0.15 0.27 0.41 0.48 0.53 0.57 0.74 1.04 1.21 1.37 1.53 1.61
0.87 0.84 0.79 0.74 0.73 0.71 0.68 0.62 0.51 0.45 0.46 0.47 0.43 0.40 0.39 0.33 0.25 0.22 0.18 0.19 0.23 0.24 0.23 0.24 0.25 0.25 0.24 0.19 0.15 0.17 0.19 0.19 0.26 0.40 0.53 0.63 0.70 0.90 1.21 1.40 1.57 1.61 1.51
0.60 0.60 0.61 0.58 0.54 0.51 0.51 0.48 0.41 0.38 0.43 0.40 0.33 0.30 0.27 0.27 0.27 0.21 0.12 0.10 0.12 0.11 0.15 0.17 0.17 0.19 0.19 0.13 0.14 0.17 0.18 0.19 0.23 0.36 0.56 0.72 0.85 1.06 1.27 1.44 1.48 1.45 1.34
0.47 0.51 0.53 0.51 0.49 0.47 0.44 0.39 0.31 0.30 0.36 0.33 0.27 0.22 0.18 0.17 0.17 0.22 0.16 0.07 0.04 0.04 0.05 0.06 0.07 0.08 0.10 0.09 0.12 0.15 0.18 0.21 0.27 0.38 0.58 0.71 0.81 1.00 1.20 1.34 1.31 1.20 1.13

GEFSMW_prec_meanprecacc_186.txt.gz
Total_Precipitation_Accumulation
1.28 1.49 1.91 2.61 2.93 3.44 3.36 3.04 2.83 2.76 2.73 2.72 2.76 2.78 2.97 3.15 3.28 3.33 3.17 3.09 3.01 3.01 3.15 3.09 3.00 2.83 2.77 2.77 2.70 2.58 2.49 2.35 2.30 2.18 1.90 1.55 1.24 1.11 1.08 1.14 1.17 1.12 1.12
1.31 1.70 2.08 2.47 2.70 2.83 2.92 3.14 3.16 3.08 2.96 3.02 3.33 3.76 4.00 4.02 4.08 4.01 3.93 3.78 3.67 3.61 3.56 3.49 3.24 3.01 2.83 2.69 2.56 2.44 2.34 2.21 2.18 2.19 2.12 1.82 1.51 1.19 0.98 1.06 1.09 1.08 1.11
1.23 1.55 1.93 2.21 2.52 2.85 2.95 3.16 3.27 3.41 3.60 3.81 4.04 4.51 4.83 4.79 4.61 4.22 4.02 3.83 3.57 3.43 3.34 3.26 3.14 2.93 2.75 2.59 2.55 2.48 2.41 2.29 2.25 2.25 2.31 2.14 1.76 1.35 1.09 0.99 1.02 1.07 1.11
1.26 1.40 1.59 1.79 2.06 2.37 2.67 2.93 3.13 3.42 3.86 4.45 4.77 4.91 5.06 4.97 4.79 4.46 4.09 3.71 3.39 3.17 3.03 3.04 3.00 2.85 2.67 2.49 2.35 2.31 2.32 2.37 2.29 2.17 2.01 1.89 1.69 1.57 1.37 1.18 1.08 1.05 1.06
1.19 1.28 1.26 1.39 1.70 1.97 2.20 2.56 2.90 3.30 3.90 4.41 4.84 5.10 5.07 4.85 4.64 4.22 3.83 3.48 3.19 2.92 2.77 2.75 2.65 2.47 2.33 2.19 2.06 1.99 2.00 2.05 2.07 2.05 1.97 1.90 1.77 1.62 1.49 1.37 1.25 1.17 1.08
1.02 1.06 1.08 1.16 1.38 1.59 1.85 2.13 2.54 3.13 3.57 4.01 4.42 4.58 4.62 4.54 4.34 3.94 3.60 3.30 3.02 2.75 2.50 2.26 2.17 2.13 1.97 1.75 1.62 1.57 1.57 1.61 1.68 1.78 1.79 1.72 1.69 1.65 1.62 1.51 1.37 1.31 1.25
0.91 0.99 0.98 1.09 1.33 1.54 1.84 2.11 2.46 2.87 3.09 3.22 3.45 3.70 3.76 3.75 3.73 3.60 3.32 3.01 2.66 2.30 2.04 1.83 1.71 1.67 1.65 1.54 1.41 1.34 1.26 1.25 1.33 1.39 1.50 1.55 1.53 1.49 1.55 1.62 1.57 1.43 1.31
0.98 1.02 1.09 1.20 1.44 1.60 1.71 1.85 2.05 2.34 2.47 2.45 2.62 2.86 2.99 3.01 2.97 2.82 2.55 2.26 2.03 1.82 1.59 1.44 1.33 1.22 1.13 1.10 1.12 1.16 1.14 1.12 1.17 1.19 1.30 1.39 1.40 1.41 1.44 1.48 1.60 1.60 1.42
1.01 1.08 1.13 1.21 1.44 1.55 1.62 1.59 1.55 1.67 1.75 1.82 1.89 1.95 2.00 2.03 2.00 1.92 1.79 1.66 1.50 1.33 1.20 1.11 1.06 1.00 0.95 0.93 0.93 0.96 1.00 1.01 1.03 1.06 1.13 1.20 1.19 1.22 1.28 1.34 1.43 1.52 1.47
1.03 1.09 1.10 1.11 1.15 1.21 1.32 1.32 1.20 1.25 1.29 1.26 1.25 1.28 1.36 1.45 1.42 1.29 1.23 1.20 1.14 1.03 0.95 0.91 0.89 0.86 0.84 0.84 0.89 0.88 0.88 0.90 0.89 0.87 0.87 0.89 0.90 0.95 0.99 1.07 1.16 1.27 1.35
1.01 0.99 0.99 0.92 0.86 0.85 0.92 1.01 1.00 0.98 0.98 0.98 0.99 0.97 0.98 1.01 1.03 1.01 0.93 0.89 0.84 0.80 0.79 0.74 0.71 0.71 0.73 0.73 0.75 0.72 0.70 0.68 0.66 0.66 0.69 0.74 0.76 0.80 0.83 0.86 1.00 1.17 1.29
1.09 1.01 1.00 0.94 0.86 0.82 0.83 0.86 0.88 0.90 0.87 0.83 0.86 0.85 0.81 0.77 0.78 0.81 0.81 0.76 0.74 0.73 0.72 0.66 0.61 0.57 0.55 0.55 0.54 0.53 0.56 0.58 0.57 0.60 0.65 0.66 0.67 0.69 0.74 0.81 0.88 1.02 1.20
1.28 1.18 1.11 1.03 0.94 0.86 0.80 0.76 0.78 0.83 0.80 0.74 0.74 0.72 0.70 0.66 0.65 0.66 0.66 0.64 0.64 0.64 0.60 0.57 0.55 0.49 0.49 0.46 0.44 0.46 0.51 0.52 0.51 0.55 0.61 0.66 0.73 0.73 0.75 0.81 0.83 0.92 1.05
1.38 1.25 1.16 1.08 0.98 0.90 0.86 0.85 0.81 0.76 0.71 0.68 0.68 0.67 0.69 0.66 0.61 0.57 0.56 0.56 0.56 0.58 0.60 0.60 0.50 0.42 0.37 0.37 0.36 0.36 0.40 0.41 0.43 0.50 0.57 0.62 0.72 0.78 0.81 0.81 0.83 0.88 1.00
1.42 1.30 1.27 1.21 1.10 1.06 1.01 0.96 0.87 0.79 0.72 0.68 0.67 0.71 0.73 0.72 0.69 0.67 0.64 0.62 0.59 0.54 0.53 0.54 0.52 0.45 0.37 0.33 0.32 0.32 0.35 0.42 0.47 0.50 0.52 0.56 0.65 0.73 0.71 0.68 0.71 0.84 1.03
1.60 1.62 1.64 1.58 1.43 1.28 1.19 1.08 0.94 0.86 0.80 0.79 0.78 0.78 0.77 0.73 0.70 0.67 0.65 0.65 0.63 0.58 0.52 0.51 0.50 0.46 0.35 0.35 0.35 0.33 0.38 0.46 0.51 0.54 0.54 0.51 0.53 0.52 0.53 0.59 0.66 0.76 0.97
1.90 1.93 1.87 1.77 1.59 1.48 1.41 1.30 1.15 1.03 0.98 0.95 0.88 0.82 0.75 0.71 0.66 0.59 0.62 0.66 0.62 0.57 0.51 0.47 0.48 0.47 0.40 0.36 0.34 0.34 0.39 0.50 0.56 0.59 0.59 0.48 0.42 0.49 0.55 0.59 0.65 0.76 0.90
1.81 1.81 1.73 1.66 1.56 1.51 1.43 1.29 1.15 1.07 1.00 0.94 0.86 0.76 0.66 0.65 0.66 0.65 0.66 0.63 0.59 0.55 0.55 0.54 0.52 0.48 0.39 0.36 0.35 0.34 0.40 0.51 0.54 0.55 0.57 0.59 0.56 0.52 0.55 0.60 0.72 0.87 0.99
1.69 1.74 1.72 1.65 1.61 1.54 1.40 1.30 1.18 1.05 0.99 0.92 0.77 0.65 0.58 0.58 0.58 0.59 0.58 0.56 0.56 0.54 0.49 0.47 0.48 0.49 0.46 0.40 0.36 0.34 0.42 0.49 0.50 0.48 0.47 0.46 0.49 0.52 0.63 0.78 1.01 1.14 1.25
1.58 1.71 1.79 1.80 1.73 1.60 1.37 1.28 1.15 0.97 0.84 0.70 0.60 0.56 0.54 0.50 0.46 0.46 0.48 0.49 0.51 0.48 0.41 0.39 0.42 0.43 0.41 0.32 0.29 0.31 0.38 0.45 0.48 0.51 0.52 0.46 0.43 0.53 0.69 0.94 1.22 1.35 1.42
1.58 1.68 1.70 1.67 1.60 1.50 1.31 1.22 1.07 0.90 0.71 0.57 0.52 0.52 0.46 0.38 0.34 0.38 0.43 0.44 0.41 0.40 0.39 0.39 0.37 0.33 0.26 0.22 0.21 0.22 0.26 0.35 0.45 0.52 0.59 0.58 0.51 0.58 0.77 0.98 1.17 1.33 1.36
1.43 1.51 1.47 1.40 1.29 1.21 1.13 1.07 0.94 0.72 0.56 0.50 0.49 0.48 0.42 0.26 0.23 0.33 0.37 0.36 0.39 0.38 0.35 0.34 0.32 0.27 0.25 0.18 0.16 0.17 0.17 0.20 0.36 0.54 0.58 0.59 0.57 0.63 0.83 0.99 1.22 1.43 1.50
1.17 1.20 1.11 1.02 1.01 0.97 0.92 0.87 0.74 0.57 0.49 0.48 0.49 0.44 0.37 0.30 0.23 0.27 0.31 0.32 0.33 0.30 0.25 0.26 0.27 0.24 0.25 0.20 0.12 0.13 0.14 0.16 0.27 0.42 0.48 0.53 0.58 0.74 1.05 1.21 1.37 1.53 1.62
0.91 0.89 0.83 0.77 0.77 0.75 0.72 0.65 0.54 0.49 0.50 0.51 0.47 0.44 0.41 0.34 0.27 0.25 0.21 0.22 0.25 0.26 0.24 0.24 0.26 0.25 0.25 0.20 0.16 0.18 0.19 0.20 0.27 0.41 0.53 0.63 0.71 0.91 1.22 1.41 1.58 1.62 1.52
0.63 0.63 0.64 0.61 0.56 0.54 0.54 0.50 0.44 0.40 0.47 0.46 0.38 0.33 0.30 0.28 0.29 0.23 0.14 0.12 0.13 0.13 0.16 0.18 0.18 0.20 0.19 0.13 0.15 0.17 0.18 0.20 0.24 0.37 0.56 0.73 0.87 1.08 1.30 1.46 1.50 1.47 1.37
0.50 0.54 0.56 0.53 0.50 0.49 0.47 0.41 0.34 0.32 0.39 0.39 0.32 0.25 0.21 0.20 0.19 0.23 0.17 0.08 0.05 0.05 0.06 0.07 0.07 0.09 0.10 0.09 0.12 0.15 0.18 0.21 0.27 0.38 0.59 0.72 0.83 1.02 1.23 1.37 1.34 1.23 1.15